SCP
0 0 0 0 0 0 0 1 1 1 0 0 0 0 0 0 0 0 0 0 0 0 0 0 0 -0 -0 -0 0 0 0 0 0 0 0 0 0 0 0 0 0 0 0
0 0 0 0 0 0 0 0 0 0 0 0 0 0 0 0 0 0 0 0 0 0 0 0 0 0 -0 0 0 -0 0 0 0 0 0 0 0 0 0 0 0 0 0
0 0 0 0 0 0 0 0 0 0 0 0 0 0 0 0 0 0 0 0 0 0 0 0 0 -0 -0 0 -0 0 0 0 0 0 0 0 0 0 0 0 0 0 0
0 0 0 0 0 0 0 0 0 0 0 0 0 0 0 0 0 0 0 0 0 0 0 0 0 0 -0 -0 -0 -0 0 0 0 0 0 0 0 0 0 0 0 0 0
0 0 0 0 0 0 0 0 0 0 0 0 0 0 0 0 0 0 0 0 0 -0 0 0 0 -0 -0 -0 0 0 -0 -0 0 0 0 0 0 0 0 0 0 0 0
0 0 0 0 0 0 0 0 0 0 0 0 0 0 -0 0 0 0 0 0 0 -0 0 0 -0 -0 0 0 0 0 -0 -0 -0 0 0 0 0 0 0 0 0 0 0
0 0 0 0 0 0 0 0 0 0 0 0 -0 0 0 0 0 0 0 0 -0 0 0 0 0 -0 0 0 0 0 0 -0 0 -0 0 0 0 0 0 0 0 0 0
0 0 0 0 0 0 0 0 0 0 0 -0 -0 0 0 0 0 0 0 0 0 0 0 0 0 0 0 0 0 0 0 0 0 -0 0 -0 0 0 0 0 0 0 0
0 -0 0 0 0 0 0 0 0 0 0 0 0 0 0 0 0 0 0 0 0 0 0 0 0 0 -0 -0 0 0 0 0 0 0 0 -0 0 0 0 0 0 0 0
-0 -0 0 -0 -0 0 0 0 0 -0 0 0 -0 -0 0 0 0 0 0 0 0 0 0 0 0 0 -0 -0 0 0 0 0 0 0 0 0 0 0 0 0 0 0 0
-0 -0 -0 -0 -0 0 -0 -0 -0 -0 -0 -0 -0 0 0 0 0 0 0 0 0 0 0 0 0 -0 -0 0 0 0 0 0 0 0 0 0 0 0 0 0 0 0 0
-0 -0 -0 -0 0 0 -0 -0 -0 -0 -0 0 0 0 0 0 0 0 0 0 0 0 0 0 -0 -0 0 -0 0 0 0 0 0 0 0 0 0 0 0 0 0 0 0
-0 -0 -0 -0 0 -0 -0 -0 -0 -0 0 0 0 0 0 0 0 0 0 0 0 0 0 -0 -0 -0 -0 -0 0 0 0 0 0 0 0 0 0 0 0 0 0 0 0
-0 -0 -0 0 0 -0 -0 -0 -0 0 0 0 -0 0 0 0 0 0 0 0 0 -0 -0 -0 -0 -0 -0 -0 0 0 0 0 0 0 0 0 0 0 0 -0 0 0 0
-0 -0 -0 -0 0 -0 -0 -0 0 0 0 0 -0 0 -0 -0 -0 0 0 0 0 0 -0 0 0 0 0 0 0 0 0 0 0 0 0 0 0 0 0 0 0 0 0
0 -0 -0 -0 -0 -0 -0 -0 -0 -0 0 -0 -0 0 0 -0 -0 -0 -0 -0 -0 0 0 -0 0 0 0 0 0 0 0 0 0 0 0 0 0 0 0 0 0 0 0
-0 -0 -0 -0 -0 -0 -0 -0 -0 0 0 -0 0 0 0 0 0 0 0 -0 0 -0 -0 0 0 -0 0 0 0 0 0 0 0 0 0 -0 0 0 0 0 0 0 0
-0 0 -0 -0 -0 0 0 0 -0 -0 0 0 0 0 0 0 0 0 0 0 0 0 0 0 0 0 0 0 0 -0 0 0 0 0 0 0 0 0 0 0 0 -0 -0
0 0 -0 -0 -0 0 -0 -0 -0 0 0 0 0 0 0 -0 -0 0 0 0 0 0 0 0 -0 0 0 0 0 -0 0 0 0 0 0 0 0 0 0 -0 -0 -0 -0
0 0 0 0 0 0 0 -0 -0 -0 -0 0 0 0 0 0 0 0 0 0 0 0 0 0 0 0 0 0 0 0 0 0 0 0 0 0 -0 -0 -0 -0 -0 0 0
0 0 0 0 0 -0 0 -0 0 -0 -0 -0 0 -0 -0 -0 0 0 0 0 0 0 0 0 0 0 0 0 0 0 0 0 0 0 0 0 -0 -0 -0 0 -0 -0 -0
0 0 0 0 0 0 0 0 0 0 -0 -0 -0 -0 -0 -0 -0 -0 -0 0 0 0 0 0 0 0 0 0 0 0 0 0 -0 -0 -0 -0 -0 -0 -0 -0 -0 -0 0
0 0 0 0 0 0 0 0 0 0 0 0 0 0 -0 0 -0 0 0 -0 -0 -0 -0 -0 -0 -0 -0 -0 -0 -0 -0 -0 -0 -0 0 0 -0 -0 -0 -0 0 0 0
1 0 0 0 0 0 0 0 0 0 0 0 0 0 0 -0 -0 0 0 0 0 0 -0 -0 -0 0 -0 -0 -0 -0 -0 -0 -0 0 -0 -0 -0 0 -0 0 0 0 0
0 0 1 1 0 0 0 0 0 0 0 0 0 0 0 0 0 0 0 0 0 0 0 0 0 0 -0 -0 -0 -0 -0 0 -0 0 0 -0 -0 -0 0 0 0 0 0
0 0 0 0 0 0 0 0 0 0 0 0 0 0 0 0 0 0 0 0 0 0 0 0 0 0 0 0 0 0 0 0 0 0 0 -0 -0 0 0 0 0 0 0
Wind_Speed_500mb
42 41 40 38 37 35 30 27 24 24 22 19 19 19 20 21 21 17 18 20 16 15 15 15 14 17 24 30 26 20 20 15 14 15 19 20 21 26 31 33 32 36 36
42 41 41 39 35 31 27 24 22 20 19 19 20 20 21 20 19 17 18 16 17 13 14 11 15 20 20 28 23 25 22 16 17 21 22 22 23 28 33 35 38 38 42
43 43 40 36 31 28 25 22 21 22 22 20 21 21 20 20 18 18 16 16 13 13 11 11 15 20 24 26 24 22 18 18 22 21 21 28 32 34 33 30 44 46 45
41 38 35 32 30 28 25 24 24 24 23 22 21 20 20 20 19 16 15 14 11 9 7 4 10 17 23 25 21 19 24 25 22 24 27 31 35 37 37 45 48 46 43
39 34 32 30 28 28 26 24 25 25 23 23 23 22 20 18 16 16 14 12 12 11 6 5 5 13 24 26 19 19 30 27 25 18 27 33 42 42 51 55 56 59 51
37 34 30 28 29 28 26 24 25 27 26 26 25 22 21 15 14 10 12 13 14 12 9 8 4 9 14 22 26 27 31 32 23 29 33 40 36 47 54 65 67 69 66
36 34 30 29 29 26 24 23 25 30 28 26 25 25 19 16 12 6 10 14 13 11 14 13 10 9 12 14 23 29 34 25 22 17 27 32 29 42 58 67 65 66 72
37 33 29 30 28 26 24 22 25 29 28 28 26 25 18 14 11 7 11 10 12 12 15 15 14 14 10 14 21 25 27 22 17 21 19 25 18 36 57 59 72 64 69
39 34 30 30 28 25 25 24 24 28 28 26 28 24 20 15 10 10 13 9 11 12 12 12 19 21 24 21 17 22 28 30 25 23 19 29 23 42 53 67 69 67 78
41 35 29 31 27 23 22 23 22 22 26 26 29 23 17 16 15 14 19 12 12 11 10 6 3 12 21 27 24 25 34 31 31 33 30 32 27 38 46 57 66 71 71
42 36 31 29 26 22 20 19 22 24 27 29 25 20 15 18 16 14 18 15 11 11 11 11 8 11 15 22 24 29 39 34 33 39 44 41 37 46 55 61 65 66 70
43 37 36 32 26 21 20 19 20 23 26 27 22 17 14 19 14 17 18 14 12 11 13 14 9 11 16 19 25 30 46 42 44 47 48 46 42 53 54 51 57 58 46
44 40 38 30 25 22 19 17 16 19 22 21 20 19 14 16 17 15 12 15 16 15 16 14 13 15 14 20 25 33 53 49 48 48 51 49 42 45 46 54 56 44 30
46 43 38 30 25 22 17 13 14 16 21 19 20 21 18 21 19 14 9 9 12 14 17 18 20 17 21 25 37 39 45 49 50 51 51 48 51 47 49 55 48 34 19
47 43 37 29 25 23 19 16 13 17 17 22 19 19 21 20 19 15 11 14 16 16 24 31 28 25 30 35 35 41 45 46 47 50 52 50 53 50 43 41 31 24 19
47 44 40 32 26 23 19 19 23 19 22 28 22 20 18 19 18 16 16 17 17 22 34 31 28 29 33 32 30 34 37 41 46 49 53 55 45 40 41 40 26 24 21
45 42 40 33 30 26 22 18 18 27 29 26 28 26 15 14 19 24 22 23 24 25 34 30 29 27 30 30 29 31 37 36 44 44 44 43 37 38 44 35 29 29 30
42 42 37 35 31 27 24 20 18 22 25 25 26 23 20 22 22 26 29 29 28 22 26 28 32 30 28 31 28 35 35 37 38 41 36 37 35 35 36 33 34 34 32
41 40 39 35 32 29 26 23 22 21 22 22 28 27 25 29 28 27 25 20 22 24 26 25 29 28 27 28 27 26 37 37 34 34 36 33 34 32 34 35 34 35 34
38 40 42 37 34 32 29 26 25 24 24 22 24 25 31 32 33 33 31 20 17 16 17 23 28 31 28 26 28 26 30 33 32 35 31 30 32 33 33 35 36 34 39
38 38 46 37 34 34 31 29 25 25 25 22 22 23 23 25 25 28 31 24 21 20 22 20 19 23 29 32 30 30 31 33 31 33 34 34 35 35 36 35 37 40 39
40 37 46 40 35 34 31 30 28 24 23 24 24 24 25 28 20 22 24 25 25 22 20 22 21 23 24 26 31 35 38 37 36 37 39 38 37 38 39 40 42 42 42
38 40 39 40 35 33 33 31 29 27 24 22 24 22 32 28 21 19 19 20 22 23 23 22 23 23 23 26 28 30 32 34 36 38 40 42 44 43 44 46 47 48 50
27 33 35 40 34 33 32 29 27 26 26 24 22 18 23 24 21 18 18 17 17 18 20 21 23 24 25 27 27 29 30 31 32 34 38 39 43 45 47 48 49 51 53
42 32 25 26 27 27 26 26 23 21 23 22 21 20 15 16 17 17 16 17 17 17 18 19 20 22 26 30 30 31 33 41 41 38 38 42 45 47 50 52 52 55 57
38 37 40 42 43 39 35 33 36 33 36 29 21 18 16 13 14 12 9 9 10 12 14 15 17 19 22 24 34 40 48 50 52 51 51 48 50 52 54 57 59 62 62
Wind_Direction_500mb
151 149 146 145 147 151 155 160 170 185 189 191 198 199 196 194 195 198 201 212 213 214 233 237 232 216 212 217 221 212 236 226 175 166 172 179 181 191 189 191 183 187 181
149 146 146 144 148 150 154 161 173 175 181 185 181 184 183 189 195 194 196 211 213 224 243 228 224 212 201 202 207 209 213 197 164 162 155 166 168 173 176 186 185 179 180
147 147 145 146 150 152 155 159 162 167 165 171 173 177 181 187 188 191 208 213 219 221 221 233 234 208 198 204 212 203 196 178 161 159 161 160 167 169 178 171 170 172 178
149 148 147 148 150 150 152 154 161 161 163 171 172 171 178 177 180 195 211 209 197 188 222 276 233 213 211 195 198 183 180 157 153 148 161 164 158 165 167 163 164 169 164
150 148 148 151 149 149 152 159 163 162 163 166 163 165 173 177 182 199 200 178 170 162 157 147 87 191 185 187 185 181 163 159 159 180 177 158 164 169 171 169 165 166 170
150 152 154 153 150 152 155 161 165 165 166 168 169 166 167 169 184 183 171 163 164 165 163 171 127 115 166 187 188 178 167 177 181 171 174 168 174 179 181 173 170 169 154
154 154 156 157 154 155 158 169 174 176 171 169 169 163 176 178 170 180 182 160 168 182 187 185 169 177 162 171 183 181 178 184 190 172 167 183 172 182 181 174 173 173 167
156 154 156 156 156 158 166 173 180 177 168 168 164 163 166 171 183 208 182 181 175 171 178 192 209 199 179 163 161 159 174 174 177 165 189 177 167 171 181 180 172 171 163
158 153 151 155 155 160 169 174 171 171 169 167 170 172 173 186 201 193 148 190 168 160 167 210 217 225 209 186 175 162 166 161 161 162 174 165 154 170 177 181 171 165 159
160 157 153 154 155 155 169 168 162 170 172 166 175 173 187 196 202 204 171 156 172 178 185 205 218 215 208 195 194 186 173 176 161 155 165 155 156 174 176 176 172 172 166
161 158 156 156 156 159 156 166 160 162 163 163 165 178 193 175 199 184 182 181 187 191 200 203 197 189 190 196 199 195 188 169 170 161 168 161 160 167 171 174 173 178 168
161 158 157 155 152 155 152 159 167 164 165 165 162 165 164 182 190 175 186 204 211 222 204 195 190 179 182 199 190 188 183 170 168 163 171 169 172 175 175 174 176 174 165
163 162 162 162 160 162 155 151 168 170 163 166 179 180 175 181 187 186 213 218 219 224 209 183 178 165 164 160 161 161 173 166 166 165 170 174 173 166 174 173 171 170 178
165 166 168 166 168 167 164 154 170 183 170 174 179 182 182 189 189 197 204 191 179 191 186 173 166 148 145 147 154 162 170 168 169 168 169 168 164 165 165 168 176 177 172
168 170 171 172 168 167 162 163 169 190 180 177 171 179 180 189 195 204 200 182 174 174 163 159 153 148 148 140 151 168 168 168 167 172 170 167 168 167 166 170 175 181 179
172 176 177 177 173 170 171 165 176 185 171 162 172 172 177 192 194 188 174 162 161 152 159 158 148 150 153 151 155 161 167 170 172 170 175 173 163 167 171 177 179 186 179
175 177 181 180 180 177 169 165 173 179 174 175 172 179 174 162 166 160 154 146 146 151 157 158 158 156 154 155 154 159 159 168 171 161 164 166 168 170 176 183 188 194 198
179 181 183 182 182 176 173 165 168 178 173 176 176 172 160 149 150 154 152 148 153 151 173 169 168 159 157 154 152 158 150 154 163 168 163 168 175 180 188 195 199 202 202
184 186 184 183 181 174 170 166 166 164 166 172 175 170 164 157 154 151 145 148 157 160 169 173 175 171 175 163 157 161 165 168 170 172 177 183 188 192 197 201 207 209 212
187 188 183 184 183 179 175 171 173 170 167 176 169 175 170 168 169 168 159 157 162 160 166 174 185 185 183 182 179 179 179 182 186 186 190 195 198 200 207 210 211 219 223
190 192 184 185 186 184 181 179 177 178 179 178 174 186 173 163 173 180 181 175 179 176 170 167 177 183 190 188 187 189 198 203 202 199 201 205 209 213 214 220 225 227 228
192 189 187 190 190 190 189 188 186 180 179 180 179 197 174 156 181 185 189 192 187 186 189 184 182 187 186 192 199 205 208 214 215 214 212 213 219 222 225 229 230 233 237
194 191 190 191 192 192 190 186 185 187 183 178 180 201 194 187 187 191 193 196 199 200 198 199 197 202 204 204 204 204 209 215 219 219 222 224 227 232 234 235 236 239 242
172 185 192 194 193 193 190 192 192 191 190 187 182 191 191 198 197 199 199 203 206 208 209 212 215 216 222 221 224 223 223 223 224 228 225 228 232 236 236 239 243 245 247
159 150 162 180 186 189 189 185 180 178 181 181 182 184 185 188 195 198 200 203 208 213 221 223 227 232 233 231 234 239 239 242 234 230 237 240 239 240 242 246 247 247 250
161 156 151 153 149 150 152 153 152 147 145 141 142 149 153 163 170 168 178 199 210 225 229 237 244 247 246 247 243 242 240 243 249 250 244 243 245 250 252 252 253 254 256
Wind_Speed_850mb
42 41 40 38 37 35 30 27 24 24 22 19 19 19 20 21 21 17 18 20 16 15 15 15 14 17 24 30 26 20 20 15 14 15 19 20 21 26 31 33 32 36 36
42 41 41 39 35 31 27 24 22 20 19 19 20 20 21 20 19 17 18 16 17 13 14 11 15 20 20 28 23 25 22 16 17 21 22 22 23 28 33 35 38 38 42
43 43 40 36 31 28 25 22 21 22 22 20 21 21 20 20 18 18 16 16 13 13 11 11 15 20 24 26 24 22 18 18 22 21 21 28 32 34 33 30 44 46 45
41 38 35 32 30 28 25 24 24 24 23 22 21 20 20 20 19 16 15 14 11 9 7 4 10 17 23 25 21 19 24 25 22 24 27 31 35 37 37 45 48 46 43
39 34 32 30 28 28 26 24 25 25 23 23 23 22 20 18 16 16 14 12 12 11 6 5 5 13 24 26 19 19 30 27 25 18 27 33 42 42 51 55 56 59 51
37 34 30 28 29 28 26 24 25 27 26 26 25 22 21 15 14 10 12 13 14 12 9 8 4 9 14 22 26 27 31 32 23 29 33 40 36 47 54 65 67 69 66
36 34 30 29 29 26 24 23 25 30 28 26 25 25 19 16 12 6 10 14 13 11 14 13 10 9 12 14 23 29 34 25 22 17 27 32 29 42 58 67 65 66 72
37 33 29 30 28 26 24 22 25 29 28 28 26 25 18 14 11 7 11 10 12 12 15 15 14 14 10 14 21 25 27 22 17 21 19 25 18 36 57 59 72 64 69
39 34 30 30 28 25 25 24 24 28 28 26 28 24 20 15 10 10 13 9 11 12 12 12 19 21 24 21 17 22 28 30 25 23 19 29 23 42 53 67 69 67 78
41 35 29 31 27 23 22 23 22 22 26 26 29 23 17 16 15 14 19 12 12 11 10 6 3 12 21 27 24 25 34 31 31 33 30 32 27 38 46 57 66 71 71
42 36 31 29 26 22 20 19 22 24 27 29 25 20 15 18 16 14 18 15 11 11 11 11 8 11 15 22 24 29 39 34 33 39 44 41 37 46 55 61 65 66 70
43 37 36 32 26 21 20 19 20 23 26 27 22 17 14 19 14 17 18 14 12 11 13 14 9 11 16 19 25 30 46 42 44 47 48 46 42 53 54 51 57 58 46
44 40 38 30 25 22 19 17 16 19 22 21 20 19 14 16 17 15 12 15 16 15 16 14 13 15 14 20 25 33 53 49 48 48 51 49 42 45 46 54 56 44 30
46 43 38 30 25 22 17 13 14 16 21 19 20 21 18 21 19 14 9 9 12 14 17 18 20 17 21 25 37 39 45 49 50 51 51 48 51 47 49 55 48 34 19
47 43 37 29 25 23 19 16 13 17 17 22 19 19 21 20 19 15 11 14 16 16 24 31 28 25 30 35 35 41 45 46 47 50 52 50 53 50 43 41 31 24 19
47 44 40 32 26 23 19 19 23 19 22 28 22 20 18 19 18 16 16 17 17 22 34 31 28 29 33 32 30 34 37 41 46 49 53 55 45 40 41 40 26 24 21
45 42 40 33 30 26 22 18 18 27 29 26 28 26 15 14 19 24 22 23 24 25 34 30 29 27 30 30 29 31 37 36 44 44 44 43 37 38 44 35 29 29 30
42 42 37 35 31 27 24 20 18 22 25 25 26 23 20 22 22 26 29 29 28 22 26 28 32 30 28 31 28 35 35 37 38 41 36 37 35 35 36 33 34 34 32
41 40 39 35 32 29 26 23 22 21 22 22 28 27 25 29 28 27 25 20 22 24 26 25 29 28 27 28 27 26 37 37 34 34 36 33 34 32 34 35 34 35 34
38 40 42 37 34 32 29 26 25 24 24 22 24 25 31 32 33 33 31 20 17 16 17 23 28 31 28 26 28 26 30 33 32 35 31 30 32 33 33 35 36 34 39
38 38 46 37 34 34 31 29 25 25 25 22 22 23 23 25 25 28 31 24 21 20 22 20 19 23 29 32 30 30 31 33 31 33 34 34 35 35 36 35 37 40 39
40 37 46 40 35 34 31 30 28 24 23 24 24 24 25 28 20 22 24 25 25 22 20 22 21 23 24 26 31 35 38 37 36 37 39 38 37 38 39 40 42 42 42
38 40 39 40 35 33 33 31 29 27 24 22 24 22 32 28 21 19 19 20 22 23 23 22 23 23 23 26 28 30 32 34 36 38 40 42 44 43 44 46 47 48 50
27 33 35 40 34 33 32 29 27 26 26 24 22 18 23 24 21 18 18 17 17 18 20 21 23 24 25 27 27 29 30 31 32 34 38 39 43 45 47 48 49 51 53
42 32 25 26 27 27 26 26 23 21 23 22 21 20 15 16 17 17 16 17 17 17 18 19 20 22 26 30 30 31 33 41 41 38 38 42 45 47 50 52 52 55 57
38 37 40 42 43 39 35 33 36 33 36 29 21 18 16 13 14 12 9 9 10 12 14 15 17 19 22 24 34 40 48 50 52 51 51 48 50 52 54 57 59 62 62
Wind_Direction_850mb
151 149 146 145 147 151 155 160 170 185 189 191 198 199 196 194 195 198 201 212 213 214 233 237 232 216 212 217 221 212 236 226 175 166 172 179 181 191 189 191 183 187 181
149 146 146 144 148 150 154 161 173 175 181 185 181 184 183 189 195 194 196 211 213 224 243 228 224 212 201 202 207 209 213 197 164 162 155 166 168 173 176 186 185 179 180
147 147 145 146 150 152 155 159 162 167 165 171 173 177 181 187 188 191 208 213 219 221 221 233 234 208 198 204 212 203 196 178 161 159 161 160 167 169 178 171 170 172 178
149 148 147 148 150 150 152 154 161 161 163 171 172 171 178 177 180 195 211 209 197 188 222 276 233 213 211 195 198 183 180 157 153 148 161 164 158 165 167 163 164 169 164
150 148 148 151 149 149 152 159 163 162 163 166 163 165 173 177 182 199 200 178 170 162 157 147 87 191 185 187 185 181 163 159 159 180 177 158 164 169 171 169 165 166 170
150 152 154 153 150 152 155 161 165 165 166 168 169 166 167 169 184 183 171 163 164 165 163 171 127 115 166 187 188 178 167 177 181 171 174 168 174 179 181 173 170 169 154
154 154 156 157 154 155 158 169 174 176 171 169 169 163 176 178 170 180 182 160 168 182 187 185 169 177 162 171 183 181 178 184 190 172 167 183 172 182 181 174 173 173 167
156 154 156 156 156 158 166 173 180 177 168 168 164 163 166 171 183 208 182 181 175 171 178 192 209 199 179 163 161 159 174 174 177 165 189 177 167 171 181 180 172 171 163
158 153 151 155 155 160 169 174 171 171 169 167 170 172 173 186 201 193 148 190 168 160 167 210 217 225 209 186 175 162 166 161 161 162 174 165 154 170 177 181 171 165 159
160 157 153 154 155 155 169 168 162 170 172 166 175 173 187 196 202 204 171 156 172 178 185 205 218 215 208 195 194 186 173 176 161 155 165 155 156 174 176 176 172 172 166
161 158 156 156 156 159 156 166 160 162 163 163 165 178 193 175 199 184 182 181 187 191 200 203 197 189 190 196 199 195 188 169 170 161 168 161 160 167 171 174 173 178 168
161 158 157 155 152 155 152 159 167 164 165 165 162 165 164 182 190 175 186 204 211 222 204 195 190 179 182 199 190 188 183 170 168 163 171 169 172 175 175 174 176 174 165
163 162 162 162 160 162 155 151 168 170 163 166 179 180 175 181 187 186 213 218 219 224 209 183 178 165 164 160 161 161 173 166 166 165 170 174 173 166 174 173 171 170 178
165 166 168 166 168 167 164 154 170 183 170 174 179 182 182 189 189 197 204 191 179 191 186 173 166 148 145 147 154 162 170 168 169 168 169 168 164 165 165 168 176 177 172
168 170 171 172 168 167 162 163 169 190 180 177 171 179 180 189 195 204 200 182 174 174 163 159 153 148 148 140 151 168 168 168 167 172 170 167 168 167 166 170 175 181 179
172 176 177 177 173 170 171 165 176 185 171 162 172 172 177 192 194 188 174 162 161 152 159 158 148 150 153 151 155 161 167 170 172 170 175 173 163 167 171 177 179 186 179
175 177 181 180 180 177 169 165 173 179 174 175 172 179 174 162 166 160 154 146 146 151 157 158 158 156 154 155 154 159 159 168 171 161 164 166 168 170 176 183 188 194 198
179 181 183 182 182 176 173 165 168 178 173 176 176 172 160 149 150 154 152 148 153 151 173 169 168 159 157 154 152 158 150 154 163 168 163 168 175 180 188 195 199 202 202
184 186 184 183 181 174 170 166 166 164 166 172 175 170 164 157 154 151 145 148 157 160 169 173 175 171 175 163 157 161 165 168 170 172 177 183 188 192 197 201 207 209 212
187 188 183 184 183 179 175 171 173 170 167 176 169 175 170 168 169 168 159 157 162 160 166 174 185 185 183 182 179 179 179 182 186 186 190 195 198 200 207 210 211 219 223
190 192 184 185 186 184 181 179 177 178 179 178 174 186 173 163 173 180 181 175 179 176 170 167 177 183 190 188 187 189 198 203 202 199 201 205 209 213 214 220 225 227 228
192 189 187 190 190 190 189 188 186 180 179 180 179 197 174 156 181 185 189 192 187 186 189 184 182 187 186 192 199 205 208 214 215 214 212 213 219 222 225 229 230 233 237
194 191 190 191 192 192 190 186 185 187 183 178 180 201 194 187 187 191 193 196 199 200 198 199 197 202 204 204 204 204 209 215 219 219 222 224 227 232 234 235 236 239 242
172 185 192 194 193 193 190 192 192 191 190 187 182 191 191 198 197 199 199 203 206 208 209 212 215 216 222 221 224 223 223 223 224 228 225 228 232 236 236 239 243 245 247
159 150 162 180 186 189 189 185 180 178 181 181 182 184 185 188 195 198 200 203 208 213 221 223 227 232 233 231 234 239 239 242 234 230 237 240 239 240 242 246 247 247 250
161 156 151 153 149 150 152 153 152 147 145 141 142 149 153 163 170 168 178 199 210 225 229 237 244 247 246 247 243 242 240 243 249 250 244 243 245 250 252 252 253 254 256